Regional Weather Roundup
Issued by NWS Wakefield, VA

Home | Current Version | Previous Version | Text Only | Print | Product List | Glossary Off
Versions: 1 2 3 4 5 6 7 8 9 10 11 12 13 14 15 16 17 18 19 20 21 22 23 24 25 26 27 28 29 30 31 32 33 34 35 36 37 38 39 40 41 42 43 44 45 46 47 48 49 50

000
ASUS41 KAKQ 281010
RWRAKQ

REGIONAL WEATHER ROUNDUP
NATIONAL WEATHER SERVICE WAKEFIELD VA
600 AM EDT MON JUL 28 2014

Note: "fair" indicates few or no clouds below 12,000 feet with no
significant weather and/or obstructions to visibility. * = Denotes
station may not report precipitation (e.g., rain,snow,etc.),
thunder or fog.

VAZ042-051-052>054-056-281100-
NORTHERN VIRGINIA

CITY           SKY/WX    TMP DP  RH WIND       PRES   REMARKS
WASH NATIONAL  PTCLDY    73  68  84 SW6       29.60R
DULLES         PTCLDY    66  64  93 CALM      29.61S
FORT BELVOIR   CLEAR     70  68  94 CALM      29.61S FOG
QUANTICO       CLEAR     74  71  91 NW5       29.61S
FREDERICKSBRG* CLEAR     75  71  87 SW8       29.61R
STAFFORD*      CLEAR     73  73 100 SW3       29.66R
WARRENTON      FOG       67  67 100 CALM      29.61S VSB 1/4
CULPEPER*      CLEAR    N/A N/A N/A CALM      29.63R
MANASSAS*      CLEAR     66  66 100 CALM      29.60F
LEESBURG*      CLEAR     68  68 100 SW5       29.62R
WINCHESTER     CLEAR     64  63  94 S6        29.63R
$$

VAZ048-049-060>072-079>083-281100-
CENTRAL AND SOUTH CENTRAL VIRGINIA...AND NORTH CENTRAL NORTH CAROLINA

CITY           SKY/WX    TMP DP  RH WIND       PRES   REMARKS
RICHMOND       MOCLDY    78  69  73 SW15G23   29.66R
CHESTERFIELD*  PTSUNNY   75  63  64 SW8       29.68R
HANOVER        PTCLDY    76  68  76 SW8       29.67R
TAPPAHANNOCK*  PTCLDY    73  70  88 S3        29.64R
CHARLOTTSVILLE CLEAR     74  62  66 S3        29.66R
ORANGE*        CLEAR     70  63  78 SW5       29.66R
LOUISA*        CLEAR     72  68  88 SW3       29.65R
FARMVILLE*     CLEAR     73  64  73 SW6       29.67S
SOUTH HILL*    MOCLDY    79  64  61 W8        29.75R
ROANOKE RAPIDS NOT AVBL
RALEIGH        MOCLDY    76  60  57 W8        29.75S
$$

VAZ088>098-281100-
SOUTHEAST VIRGINIA

CITY           SKY/WX    TMP DP  RH WIND       PRES   REMARKS
NORFOLK        CLOUDY    80  70  71 SW14G26   29.65R
VIRGINIA BEACH CLOUDY    79  72  79 SW14      29.65S
NORFOLK NAVAL  CLOUDY    81  71  71 SW10G21   29.67R
WEST POINT*    MOCLDY    78  72  83 SW7       29.66R
NEWPORT NEWS   CLOUDY    83  71  67 W13       29.65R
LANGLEY AFB    CLOUDY    79  73  79 W15G21    29.64R
FORT EUSTIS    CLOUDY    79  71  77 VRB6      29.63R
WILLIAMSBURG*  CLOUDY    81  72  74 W14G22    29.66R
FRANKLIN*      CLOUDY    77  70  78 SW7       29.68S
WAKEFIELD      CLOUDY    79  69  71 VRB5      29.65R
$$

VAZ020-022-025-037-045-281100-
WESTERN AND SOUTHWEST VIRGINIA

CITY           SKY/WX    TMP DP  RH WIND       PRES   REMARKS
STAUNTON*      CLEAR     70  61  72 SW7       29.72R
HOT SPRINGS VA CLOUDY    58  57  95 W24G37    29.83F FOG
LYNCHBURG      CLEAR     73  64  73 SW6       29.73R
DANVILLE       CLEAR     73  65  75 SW9       29.75S
MARTINSVILLE   CLEAR     70  65  85 W5        29.81R
ROANOKE        PTCLDY    72  62  71 W8        29.77R
BLACKSBURG     PTCLDY    66  64  94 W3          N/A
DUBLIN*        MOCLDY    67  63  88 W7        29.86S
MARION*        CLOUDY   N/A N/A N/A W15       29.91F
HILLSVILLE*    CLEAR     64  60  86 W13G22    29.86F
RICHLANDS*     CLOUDY    66  64  94 W10G16    29.91S FOG
WISE*          MOCLDY    63  63 100 SW6       29.95R
ABINGDON*      CLOUDY    67  66  98 W7        29.91S
$$

MDZ021>025-VAZ099-100-281100-
SOUTHERN MARYLAND AND THE DELMARVA PENINSULA

CITY           SKY/WX    TMP DP  RH WIND       PRES   REMARKS
PATUXENT RIVER PTCLDY    75  71  87 SW9       29.59F
BAY BRIDGE APT   N/A     75  72  88 SW6       29.59R
LEONARDTOWN    PTCLDY    73  70  88 SW5       29.62S
DOVER          PTCLDY    74  74 100 SW9       29.55S
GEORGETOWN     PTCLDY    74  72  93 S9        29.60R
EASTON         PTCLDY    77  77 100 CALM      29.62S
CAMBRIDGE      PTCLDY    77  72  83 SW5       29.59R
SALISBURY      NOT AVBL
OCEAN CITY     CLEAR     76  73  91 W10       29.60S
WALLOPS ISLAND CLEAR     79  73  82 W9        29.62S
ACCOMACK*        N/A     77  72  83 SW7       29.61F
$$

NCZ012>017-030>032-281100-
EASTERN NORTH CAROLINA

CITY           SKY/WX    TMP DP  RH WIND       PRES   REMARKS
ELIZABETH CITY CLOUDY    80  73  79 SW12      29.70R
AHOSKIE*       CLOUDY    76  70  81 CALM      29.70F
EDENTON*       CLOUDY    81  73  76 SW8       29.72S
CURRITUCK*     CLOUDY    80  71  71 SW12      29.70R
KILL DEVIL HLS CLOUDY    81  75  82 SW10G16   29.71R
MANTEO         NOT AVBL
CAPE HATTERAS  CLOUDY    81  80  97 SW17G26   29.77R FOG
GOLDSBORO      CLOUDY    80  71  74 SW10      29.73F
WASHINGTON     CLOUDY    79  73  82 SW6       29.74R
GREENVILLE     CLOUDY    79  72  78 SW7       29.75F
NEW BERN       MOCLDY    82  73  74 SW8       29.78R
WILMINGTON     PTCLDY    82  73  74 SW10      29.80R
$$

VAZ048-281100-
ELSEWHERE

CITY           SKY/WX    TMP DP  RH WIND       PRES   REMARKS
HARRISBURG PA  PTCLDY    66  64  93 S7        29.56R
BALTIMORE      PTCLDY    70  68  93 SW3       29.58S
ANNAPOLIS      CLEAR     75  70  84 VRB5      29.59R
ANDREWS AFB    CLEAR     72  71  96 S3        29.60R
WILMINGTON DE  PTCLDY    68  67  96 CALM      29.57S
PHILADELPHIA   MOCLDY    70  66  87 S6        29.56S
WILDWOOD NJ*   MOCLDY    73  70  88 SW8       29.58S
ATLANTIC CITY  PTCLDY    70  68  93 SE5       29.56F
HENDERSON NC   MOCLDY    76  59  56 W9G16     29.73R
GREENSBORO     PTCLDY    70  65  84 W10       29.78F
ROCKY MOUNT    CLOUDY    79  64  60 SW8       29.73S
FAYETTEVILLE   CLOUDY    81  66  60 SW8       29.78S
CHARLOTTE      PTCLDY    69  66  90 CALM      29.82F
$$

VAZ100-281100-
MARINE

STATION/POSITION TIME  TEMP    WIND        PRES    WAVE   SWELL
                       AIR SEA DIR/SP/G            HT/PER HT/PER
                 (UTC) (F)     (DEG/KT/KT) (MB)    (FT/S) (FT/S)
44066 TX TWR #4  1000   74 74  280/  8/ 12 1002.9    4/ 5   3/ 5
CAPE MAY NJ      1000   75 77  190/  8/ 13 1000.8F
LEWES DE         1000   75 70  240/  7/ 10 1001.3R
15NM E FENWICK I 1000   75 74              1001.8F   4/ 5
OCEAN-CITY-INLET 1000   77 71  250/  9/ 12 1001.9S
WACHAPREAGUE VA  1000   79 79  250/  4/ 10 1002.7F
THOMAS POINT MD  1000   76 79  230/ 11/ 12 1002.6R
GOOSES REEF MD   1000   78     260/ 10/ 12 1002.6S
COVE POINT MD    1000   77     260/  8/ 10 1002.0S
SOLOMONS ISLAND  1000      80                N/A
BISHOPS HEAD MD  1000   79 78  250/ 16/ 18 1001.9S
PINEY POINT MD   1000          260/  8/ 13   N/A
POTOMAC MD       1000   78     250/ 16/ 17 1001.4F
CAMBRIDGE MD     1000   78 80  230/  6/  9 1001.7S
LEWISETTA VA     1000   77 79  240/  8/ 10 1002.2R
RAPPAHANNOCK LGT 1000          240/ 15/ 17 1003.4R
STINGRAY PT      1000   79     250/ 14/ 16 1003.8R
YORK RVR RNG VA  1000   80     260/ 17/ 22 1003.0R
YORKTOWN VA      1000   79 80  250/ 11/ 15 1003.6R
JAMESTOWN VA     1000   78     280/ 16/ 21   N/A
DOMINION TERM VA 1000   80     250/ 15/ 18 1004.1R
KIPTOPEKE VA     1000      81  250/ 16/ 20   N/A
CHES BAY BRIDGE  1000   81 78  220/ 20/ 24 1003.1R
CAPE HENRY VA    1000   80     230/ 11/ 17 1002.8R
WILLOUBY STN VA  1000          240/ 20/ 25 1002.8S
S CRANEY ISL VA  1000          230/ 10/ 17 1004.3R
CAPE HENRY BUOY  1000      76                N/A     3/ 4
1ST LANDING BUOY 1000   81     240/ 16/ 17 1003.8R
CAPE CHARLES BUO 1000      75                N/A     3/ 5
OFFSHORE WE BUOY 1000      78                N/A     4/ 4
64NM E OF VA BCH 1000   80 78  220/ 19/ 23 1004.2F   4/ 5   2/ 8
DUCK PIER NC     1000   81 63  220/ 17/ 24 1005.2R
44056 DUCK FRF   1000                        N/A     2/ 8
OREGON INLET NC  1000   82 82  220/ 20/ 22 1006.5R
HATTERAS NC      1000   81 81  230/ 13/ 19 1008.4R
DIAMOND SHLS NC  1000          VRB 23/ 27  1007.6R   6/ 6   2/ 9
CAPE LOOKOUT NC  0900   83     230/ 16/ 22 1008.7R
$$



USA.gov is the U.S. government's official web portal to all federal, state and local government web resources and services.